Home   Weather   Wals-Siezenheim   Past weeks

Flag for Austria Past Weather in Wals-Siezenheim, Salzburg, Austria — Yesterday and Last 2 Weeks

Now
36 °F

Passing clouds.


Feels Like: 27 °F
Forecast: 26 / 41 °F
Wind: 12 mph from Southeast

Location: Salzburg-Flughafen

Current Time: Dec 10, 2016 at 2:27:24 am

Latest Report: Dec 10, 2016 at 1:50 am


Visibility: N/A

Pressure: 30.39 "Hg

Humidity: 60%

Dew Point: 23 °F

Location of Wals-SiezenheimLocation

Past Weather in Wals-Siezenheim — Graph

°F

Wals-Siezenheim Temperature Yesterday

Maximum temperature yesterday: 48 °F (at 1:50 pm)
Minimum temperature yesterday: 30 °F (at 7:20 am)
Average temperature yesterday: 37 °F

High & Low Weather Summary for the Past Weeks

 TemperatureHumidityPressure
High48 °F (Dec 9, 1:50 pm)100% (Nov 27, 4:50 am)30.60 "Hg (Nov 27, 4:50 am)
Low18 °F (Nov 29, 7:20 am)40% (Dec 9, 2:20 pm)29.98 "Hg (Nov 27, 1:50 pm)
Average33 °F83%30.30 "Hg
* Reported Nov 25 12:20 am — Dec 10 12:50 am, Wals-Siezenheim, Weather by CustomWeather, © 2016

Note: Actual official high and low records may vary slightly from our data, if they occured in-between our weather recording intervals... More about our weather records

Advertising

Wals-Siezenheim Weather History for the Previous 24 Hours

Scroll right to see more
 ConditionsComfort  
Time TempWeatherWind HumidityBarometerVisibility
12:50 am
Sat, Dec 10
36 °FPassing clouds.13 mph60%30.42 "HgN/A
12:20 am36 °FPassing clouds.13 mph60%30.42 "HgN/A
11:50 pm
Fri, Dec 9
36 °FPassing clouds.8 mph60%30.45 "HgN/A
11:20 pm36 °FPassing clouds.9 mph60%30.45 "HgN/A
10:50 pm36 °FClear.8 mph60%30.45 "Hg10 mi
10:20 pm34 °FPassing clouds.8 mph70%30.45 "HgN/A
9:50 pm36 °FPassing clouds.8 mph65%30.48 "HgN/A
9:20 pm32 °FPassing clouds.6 mph69%30.48 "HgN/A
8:50 pm32 °FPassing clouds.5 mph75%30.48 "HgN/A
8:20 pm30 °FPassing clouds.6 mph80%30.48 "HgN/A
7:50 pm32 °FPassing clouds.3 mph75%30.48 "HgN/A
7:20 pm32 °FPassing clouds.5 mph75%30.48 "HgN/A
6:50 pm32 °FPassing clouds.5 mph75%30.48 "HgN/A
6:20 pm36 °FPassing clouds.2 mph65%30.48 "HgN/A
5:50 pm34 °FPassing clouds.3 mph70%30.48 "HgN/A
5:20 pm34 °FClear.3 mph70%30.48 "Hg10 mi
4:50 pm36 °FClear.5 mph65%30.48 "Hg10 mi
4:20 pm39 °FClear.6 mph56%30.45 "Hg10 mi
3:50 pm39 °FSunny.7 mph61%30.45 "Hg10 mi
3:20 pm45 °FPassing clouds.6 mph53%30.45 "HgN/A
2:50 pm46 °FPassing clouds.5 mph50%30.48 "HgN/A
2:20 pm48 °FPassing clouds.2 mph40%30.48 "HgN/A
1:50 pm48 °FPassing clouds.2 mph43%30.48 "HgN/A
1:20 pm45 °FScattered clouds.3 mph53%30.48 "HgN/A
12:50 pm45 °FPartly sunny.5 mph49%30.48 "HgN/A
12:20 pm45 °FScattered clouds.3 mph49%30.48 "HgN/A
11:50 am45 °FScattered clouds.7 mph42%30.48 "HgN/A
11:20 am43 °FPassing clouds.6 mph46%30.48 "HgN/A
10:50 am41 °FPassing clouds.6 mph53%30.48 "HgN/A
10:20 am41 °FPassing clouds.6 mph49%30.51 "HgN/A
9:50 am39 °FSunny.6 mph52%30.51 "Hg10 mi
9:20 am37 °FSunny.6 mph60%30.48 "Hg10 mi
8:50 am30 °FSunny.7 mph69%30.48 "Hg10 mi
8:20 am30 °FPassing clouds.5 mph69%30.48 "HgN/A
7:50 am30 °FSunny.2 mph69%30.48 "Hg10 mi
7:20 am30 °FPassing clouds.5 mph64%30.48 "HgN/A
6:50 am32 °FClear.8 mph64%30.48 "Hg10 mi
6:20 am32 °FPassing clouds.6 mph64%30.48 "HgN/A
5:20 am36 °FChilly.8 mph56%30.48 "HgN/A
4:50 am34 °FChilly.7 mph60%30.45 "HgN/A
4:20 am34 °FPassing clouds.8 mph65%30.45 "HgN/A
3:50 am36 °FChilly.8 mph56%30.45 "HgN/A
3:20 am34 °FChilly.8 mph60%30.45 "HgN/A
2:50 am34 °FPassing clouds.8 mph65%30.45 "HgN/A
2:20 am34 °FPassing clouds.9 mph65%30.45 "HgN/A
Weather by CustomWeather, © 2016

See weather overviewHow to use our weather pages